Date,TemperatureHighF,TemperatureAvgF,TemperatureLowF,DewpointHighF,DewpointAvgF,DewpointLowF,HumidityHigh,HumidityAvg,HumidityLow,PressureMaxIn,PressureMinIn,WindSpeedMaxMPH,WindSpeedAvgMPH,GustSpeedMaxMPH,PrecipitationSumIn
2013-10-1,79.3,61.8,48.6,45.8,38.3,30.0,78,47,17,29.62,29.53,0,0,0,0.00
2013-10-2,83.7,65.2,51.1,53.4,43.0,34.5,72,49,19,29.65,29.53,0,0,0,0.00
2013-10-3,77.9,63.3,50.2,50.7,39.4,25.3,73,47,15,29.74,29.65,0,0,0,0.00
2013-10-4,83.7,66.4,57.2,53.8,48.6,39.8,75,56,22,29.71,29.62,0,0,0,0.00
2013-10-5,78.6,66.8,61.3,60.5,50.0,42.5,83,57,28,29.74,29.68,0,0,0,0.00
2013-10-6,65.8,63.3,61.7,61.9,59.0,53.6,93,86,72,29.77,29.68,0,0,0,0.08
2013-10-7,74.1,67.7,58.8,67.3,58.3,40.0,94,74,46,29.71,29.41,0,0,0,0.31
2013-10-8,66.9,56.2,48.6,44.4,30.6,18.2,75,42,17,29.94,29.59,0,0,0,0.00
2013-10-9,62.8,53.0,44.2,34.8,28.9,21.4,62,41,21,30.00,29.91,0,0,0,0.00
2013-10-10,61.9,54.8,49.1,38.0,34.6,31.9,65,47,36,29.91,29.71,0,0,0,0.00
2013-10-11,68.5,61.7,55.9,44.9,39.0,34.5,59,44,32,29.74,29.68,10,2,13,0.00
2013-10-12,71.2,60.9,52.9,38.3,32.2,26.3,46,35,22,29.94,29.74,13,4,17,0.00
2013-10-13,65.7,56.4,50.5,40.9,33.5,26.8,69,44,24,30.00,29.91,10,2,14,0.00
2013-10-14,67.3,53.5,42.4,37.5,32.4,25.2,74,47,22,29.97,29.85,6,1,9,0.00
2013-10-15,71.8,56.8,46.9,44.7,32.2,15.8,83,45,15,29.85,29.74,9,1,11,0.00
2013-10-16,64.9,56.8,47.3,51.8,37.6,28.1,73,51,29,29.74,29.53,5,1,6,0.00
2013-10-17,77.0,65.1,60.4,57.9,48.7,32.4,86,61,20,29.53,29.32,8,2,11,0.00
2013-10-18,70.5,61.3,48.6,58.6,31.3,18.8,82,36,17,29.59,29.26,15,4,17,0.00
2013-10-19,63.5,53.2,40.6,46.4,27.4,18.7,68,39,18,29.59,29.35,9,1,13,0.04
2013-10-20,65.1,54.1,42.1,49.7,24.8,12.7,77,36,15,29.65,29.32,15,3,16,0.00
2013-10-21,68.5,51.5,36.3,30.1,22.7,14.6,58,36,15,29.68,29.59,10,2,11,0.00
2013-10-22,68.9,52.8,41.4,45.3,30.1,23.8,71,44,20,29.59,29.35,11,2,14,0.00
2013-10-23,53.1,45.0,35.6,31.1,20.2,11.3,70,40,21,29.41,29.23,8,2,14,0.00
2013-10-24,56.3,45.8,37.6,22.4,13.7,7.0,51,29,17,29.53,29.32,13,4,17,0.00
2013-10-25,53.8,42.8,32.2,17.9,13.4,9.5,55,31,18,29.77,29.53,13,3,17,0.00
2013-10-26,56.8,43.2,30.4,24.9,14.7,9.7,59,35,17,29.77,29.47,15,3,20,0.00
2013-10-27,59.4,48.8,38.5,22.3,15.7,10.0,51,28,17,29.65,29.38,13,3,17,0.00
2013-10-28,63.7,47.6,32.5,21.1,16.2,11.7,55,31,16,29.91,29.65,11,2,17,0.00
2013-10-29,54.5,43.7,35.8,16.3,11.8,7.0,43,28,20,30.00,29.88,8,2,9,0.00
2013-10-30,57.0,45.5,35.4,30.9,22.5,14.0,66,41,27,29.94,29.80,5,0,6,0.00
2013-10-31,63.3,52.7,37.0,56.1,42.3,24.2,83,68,48,29.83,29.44,12,2,14,0.04